El Horno, Honduras

1:14 PM CST on December 09, 2016 (GMT -0600)
Coronel Enrique Soto Cano Air Base

Weather History for MHSC - April, 2014

Change the Weather History Date:

Saturday, April 26, 2014

  Actual Average Record
Temperature  
Mean Temperature 80 °F -  
Max Temperature 91 °F - - ()
Min Temperature 69 °F - - ()
Cooling Degree Days 15    
Growing Degree Days 30 (Base 50)    
Moisture  
Dew Point 66 °F    
Average Humidity 60    
Maximum Humidity 86    
Minimum Humidity 26    
Precipitation  
Precipitation 0.00 in - - ()
Sea Level Pressure  
Sea Level Pressure 29.81 in    
Wind  
Wind Speed 6 mph ()    
Max Wind Speed 17 mph    
Max Gust Speed 16 mph    
Visibility 6.2 miles    
Events Thunderstorm    
T = Trace of Precipitation, MM = Missing Value Source: Averaged Metar Reports

Daily Weather History Graph

Daily Weather History Graph

Search for Another Location

Airport or City:

Trip Planner

Search our weather history database for the weather conditions in past years. The results will help you decide how hot, cold, wet, or windy it might be!

Date:

Astronomy

Apr. 26, 2014 Rise Set
Actual Time 5:30 AM CST 6:06 PM CST
Civil Twilight 5:08 AM CST 6:28 PM CST
Nautical Twilight 4:42 AM CST 6:54 PM CST
Astronomical Twilight 4:16 AM CST 7:20 PM CST
Moon 3:26 AM CST (4/26) 3:57 PM CST (4/26)
Length of Visible Light 13h 19m
Length of Day
12h 35m
Waning Crescent, 8% of the Moon is Illuminated
Apr 26
Waning Crescent
Apr 29
New
May 6
First Quarter
May 14
Full
May 21
Last Quarter

Hourly Weather History & Observations

Time (CST) Temp. Heat Index Dew Point Humidity Pressure Visibility Wind Dir Wind Speed Gust Speed Precip Events Conditions
12:58 AM 77.4 °F - 70.9 °F 80% 29.80 in 6.2 mi North 6.9 mph - N/A   Partly Cloudy
1:58 AM 75.0 °F - 70.7 °F 86% 29.79 in 6.2 mi NW 6.9 mph - N/A   Partly Cloudy
2:58 AM 75.0 °F - 70.3 °F 85% 29.78 in 6.2 mi NNW 6.9 mph - N/A   Partly Cloudy
3:58 AM 75.4 °F - 70.3 °F 84% 29.78 in 6.2 mi North 4.6 mph - N/A   Scattered Clouds
4:58 AM 74.5 °F - 69.8 °F 85% 29.81 in 6.2 mi North 2.3 mph - N/A   Mostly Cloudy
6:00 AM 70 °F - 66 °F 82% 29.84 in 6 mi North 2.3 mph - -   Smoke
6:58 AM 75.4 °F - 69.4 °F 82% 29.86 in 6.2 mi NW 4.6 mph - N/A   Clear
7:58 AM 79.2 °F - 68.9 °F 71% 29.86 in 6.2 mi North 8.1 mph - N/A   Clear
8:58 AM 82.6 °F 85.7 °F 68.4 °F 62% 29.86 in 6.2 mi NNW 10.4 mph 16.1 mph N/A   Clear
9:00 AM 77 °F - 67 °F 64% 29.87 in 6 mi North 4.6 mph - -   Smoke
9:58 AM 86.5 °F 88.4 °F 65.3 °F 49% 29.84 in 6.2 mi Variable 5.8 mph - N/A   Partly Cloudy
10:58 AM 88.0 °F 87.9 °F 60.8 °F 40% 29.83 in 6.2 mi North 8.1 mph - N/A   Mostly Cloudy
11:58 AM 91.9 °F 90.8 °F 58.5 °F 32% 29.78 in 6.2 mi Variable 4.6 mph - N/A   Mostly Cloudy
12:00 PM 88 °F - 67 °F 41% 29.81 in 6 mi Calm Calm - -   Smoke
12:58 PM 93.4 °F 92.5 °F 58.6 °F 31% 29.77 in 6.2 mi West 3.5 mph - N/A   Mostly Cloudy
1:58 PM 95.4 °F 94.2 °F 57.2 °F 28% 29.73 in 6.2 mi NE 4.6 mph - N/A   Mostly Cloudy
2:58 PM 95.4 °F 93.5 °F 55.6 °F 26% 29.70 in 6.2 mi Variable 6.9 mph - N/A   Partly Cloudy
3:00 PM 89 °F - 69 °F 42% 29.76 in 6 mi South 2.3 mph - -   Smoke
3:58 PM 95.9 °F 94.2 °F 55.9 °F 26% 29.68 in 6.2 mi NNW 10.4 mph - N/A   Partly Cloudy
4:58 PM 92.8 °F 90.6 °F 54.0 °F 27% 29.71 in 6.2 mi ENE 9.2 mph - N/A   Mostly Cloudy
5:58 PM 85.6 °F 88.8 °F 67.6 °F 55% 29.88 in 6.2 mi NNW 16.1 mph - N/A   Overcast
6:00 PM 79 °F - 69 °F 65% 29.80 in 6 mi Calm Calm - - Thunderstorm Thunderstorm
6:58 PM 83.1 °F 86.6 °F 69.1 °F 62% 29.79 in 6.2 mi NNW 17.3 mph - N/A   Mostly Cloudy
7:58 PM 80.8 °F 83.9 °F 69.4 °F 68% 29.83 in 6.2 mi NNW 17.3 mph - N/A   Clear
8:58 PM 79.0 °F - 69.3 °F 72% 29.85 in 6.2 mi NNW 15.0 mph - N/A   Clear
9:58 PM 77.7 °F - 69.3 °F 75% 29.86 in 6.2 mi NNW 9.2 mph - N/A   Clear
10:58 PM 77.0 °F - 69.3 °F 77% 29.85 in 6.2 mi West 2.3 mph - N/A   Clear
11:58 PM 76.3 °F - 69.6 °F 80% 29.83 in 6.2 mi NNE 2.3 mph - N/A   Clear